STARLINK-1635 (46172 NORAD) Tracking and Keplerian Element Data

This shows tracking and keplerian element data for the satellite.

Feedback or suggestion? Click here.




ElementValue
Catalog46172
NameSTARLINK-1635
Epoch Orbit178
Epoch Day268.91668981
Epoch Year2020
RAAN256.4846
Inclination52.9984
Eccentricity0.0001594
Argument of Perigee42.891
Mean Anonmoly109.1952
Mean Motion15.65362065
Decay Rate-0.01016407
L11 46172U 20057BH 20268.91668981 -.01016407 00000-0 -11113-1 0 9999
L22 46172 52.9984 256.4846 0001594 42.8910 109.1952 15.65362065 1789

Live tracking and technical data element details for STARLINK-1635 (NORAD 46172). STARLINK-1635 can be tracked NOW for your location showing map with azimuth and elevation plus other details from your city location.

Track the satellite on the map from your city or location and see movement details for azimuth, elevation, latitude, longitude, range, height, and movement on the map or in text.







IsCatalogInMostPopularTable: catalog: 46172, numindb: 7
Update: records affected: 1



GetName: 46172 STARLINK-1635

Hit Count: updated at: Sat, 26 Sep 2020 14:24:11 GMT